Location: Helsinki
(60.1699°N, 24.9384°E)
Time: 15:18:08
(UTC+02:00)

Tiros 1 - Pass Details

Date: 07 October 2022
Orbit: 629 x 662 km, 48.4° (Epoch: 07 December)

Event Time Altitude Azimuth Distance (km) Brightness Sun altitude
Rises 04:34:08 0° 260° (W) 2,990 - -23.0°
Reaches altitude 10° 04:38:51 10° 219° (SW) 2,066 - -22.5°
Maximum altitude 04:39:27 10° 211° (SSW) 2,049 - -22.4°
Drops below altitude 10° 04:40:04 10° 204° (SSW) 2,062 - -22.4°
Exits shadow 04:44:41 - 162° (SSE) 2,940 10.4 -21.9°
Sets 04:44:45 0° 162° (SSE) 2,958 10.4 -21.9°
